Weather History for KHJO - October, 2013

Change the Weather History Date:

Saturday, October 19, 2013

  Actual Average Record
Temperature  
Mean Temperature 66 °F 62 °F  
Max Temperature 86 °F 78 °F 86 °F (2013)
Min Temperature 45 °F 47 °F 39 °F (2006)
Degree Days  
Heating Degree Days 0    
Month to date heating degree days 31  
Since 1 July heating degree days 38  
Cooling Degree Days 1    
Month to date cooling degree days 18  
Year to date cooling degree days 2053  
Growing Degree Days 15 (Base 50)    
Moisture  
Dew Point 41 °F    
Average Humidity 51    
Maximum Humidity 82    
Minimum Humidity 19    
Precipitation  
Precipitation 0.00 in 0.01 in 0.73 in (2004)
Month to date precipitation 0.00 0.19  
Year to date precipitation 1.61 7.16  
Since 1 July precipitation 0.01 0.40  
Snow  
Snow 0.00 in - - ()
Month to date snowfall 0.0  
Since 1 July snowfall 0.0  
Since 1 September snowfall 0.0  
Snow Depth 0.00 in    
Sea Level Pressure  
Sea Level Pressure 30.03 in    
Wind  
Wind Speed 2 mph (NNW)    
Max Wind Speed 7 mph    
Max Gust Speed -    
Visibility 6 miles    
Events      
T = Trace of Precipitation, MM = Missing Value Source: NWS Daily Summary

Daily Weather History Graph

Daily Weather History Graph

Search for Another Location

Airport or City:

Trip Planner

Search our weather history database for the weather conditions in past years. The results will help you decide how hot, cold, wet, or windy it might be!

Date:

Astronomy

Oct. 19, 2013 Rise Set
Actual Time 7:09 AM PDT 6:16 PM PDT
Civil Twilight 6:43 AM PDT 6:42 PM PDT
Nautical Twilight 6:13 AM PDT 7:12 PM PDT
Astronomical Twilight 5:43 AM PDT 7:42 PM PDT
Moon 6:50 PM PDT (10/19) 7:50 AM PDT (10/19)
Length of Visible Light 11h 59m
Length of Day
11h 07m
Full, 99% of the Moon is Illuminated
Oct 19
Full
Oct 26
Last Quarter
Nov 3
New
Nov 9
First Quarter
Nov 17
Full

Hourly Weather History & Observations

Time (PDT) Temp. Windchill Dew Point Humidity Pressure Visibility Wind Dir Wind Speed Gust Speed Precip Events Conditions
12:53 AM 53.1 °F - 41.0 °F 64% 30.04 in 7.0 mi Calm Calm - N/A   Clear
1:53 AM 52.0 °F - 44.1 °F 74% 30.04 in 6.0 mi Calm Calm - N/A   Haze
2:53 AM 51.1 °F - 41.0 °F 68% 30.04 in 6.0 mi Calm Calm - N/A   Haze
3:53 AM 48.9 °F - 41.0 °F 74% 30.04 in 6.0 mi Calm Calm - N/A   Haze
4:53 AM 46.9 °F - 41.0 °F 80% 30.05 in 5.0 mi Calm Calm - N/A   Haze
5:53 AM 46.0 °F 44.8 °F 41.0 °F 83% 30.06 in 5.0 mi ESE 3.5 mph - N/A   Haze
6:53 AM 46.9 °F - 41.0 °F 80% 30.07 in 5.0 mi Calm Calm - N/A   Haze
7:53 AM 46.9 °F - 39.9 °F 77% 30.08 in 3.0 mi Calm Calm - N/A   Haze
8:53 AM 55.0 °F - 44.1 °F 67% 30.09 in 4.0 mi Calm Calm - N/A   Haze
9:53 AM 62.1 °F - 44.1 °F 52% 30.09 in 3.0 mi Calm Calm - N/A   Haze
10:53 AM 69.1 °F - 42.1 °F 38% 30.09 in 5.0 mi East 3.5 mph - N/A   Haze
11:53 AM 75.0 °F - 42.1 °F 31% 30.07 in 5.0 mi East 3.5 mph - N/A   Haze
12:53 PM 80.1 °F - 37.0 °F 21% 30.05 in 7.0 mi Calm Calm - N/A   Clear
1:53 PM 82.0 °F - 37.9 °F 21% 30.02 in 7.0 mi West 4.6 mph - N/A   Clear
2:53 PM 82.9 °F - 37.0 °F 19% 30.00 in 7.0 mi Variable 3.5 mph - N/A   Clear
3:53 PM 84.9 °F - 37.9 °F 19% 29.99 in 7.0 mi Variable 4.6 mph - N/A   Clear
4:53 PM 84.0 °F - 39.9 °F 21% 29.98 in 8.0 mi NW 4.6 mph - N/A   Clear
5:53 PM 82.0 °F - 39.9 °F 22% 29.98 in 8.0 mi Calm Calm - N/A   Clear
6:53 PM 75.0 °F - 42.1 °F 31% 29.98 in 9.0 mi NNW 3.5 mph - N/A   Clear
7:53 PM 69.1 °F - 43.0 °F 39% 30.00 in 7.0 mi NW 4.6 mph - N/A   Clear
8:53 PM 69.1 °F - 43.0 °F 39% 30.00 in 8.0 mi WNW 4.6 mph - N/A   Clear
9:53 PM 66.9 °F - 43.0 °F 42% 30.01 in 8.0 mi NW 5.8 mph - N/A   Clear
10:53 PM 61.0 °F - 42.1 °F 50% 30.02 in 8.0 mi Calm Calm - N/A   Clear
11:53 PM 54.0 °F - 42.1 °F 64% 30.02 in 7.0 mi Calm Calm - N/A   Clear